Regional Weather Roundup
Issued by NWS Boston, MA

Home | Current Version | Previous Version | Text Only | Print | Product List | Glossary On
Versions: 1 2 3 4 5 6 7 8 9 10 11 12 13 14 15 16 17 18 19 20 21 22 23 24 25 26 27 28 29 30 31 32 33 34 35 36 37 38 39 40 41 42 43 44 45 46 47 48 49 50
000
ASUS41 KBOX 311710
RWRBOX

REGIONAL WEATHER ROUNDUP
NATIONAL WEATHER SERVICE TAUNTON MA
100 PM EDT THU JUL 31 2014

NOTE:  "FAIR" INDICATES FEW OR NO CLOUDS BELOW 12,000 FEET WITH NO
SIGNIFICANT WEATHER AND/OR OBSTRUCTIONS TO VISIBILITY.  THE FOLLOWING
OBSERVATION LOCATIONS DO NOT REPORT PRESENT WEATHER...PROVINCETOWN...
SMITHFIELD...BLOCK ISLAND...KEENE...AND OXFORD.

MAZALL-311800-
EASTERN MASSACHUSETTS

CITY           SKY/WX    TMP DP  RH WIND       PRES   REMARKS
BOSTON         PTSUNNY   79  58  48 SW8G17    30.08F
BEVERLY        PTSUNNY   75  62  64 SE12      30.09S
LAWRENCE       MOSUNNY   80  59  48 SW7G18    30.10S
BEDFORD        MOSUNNY   79  57  46 SW12      30.07F
BLUE HILL        N/A     77  59  53 S9G21     30.10F
NORWOOD        PTSUNNY   78  59  51 S8        30.09S
MARSHFIELD     PTSUNNY   79  61  53 S15       30.11F
PLYMOUTH       MOSUNNY   78  57  48 MISG      30.12S
TAUNTON        MOSUNNY   80  61  52 S8G16     30.11S
NEW BEDFORD    MOSUNNY   77  63  61 S16       30.11S
$$

MAZALL-311800-
CAPE COD AND THE ISLANDS

CITY           SKY/WX    TMP DP  RH WIND       PRES   REMARKS
FALMOUTH       PTSUNNY   75  61  60 S14       30.13S
HYANNIS        SUNNY     76  62  62 S12G20    30.13S
CHATHAM        SUNNY     80  64  58 VRB6      30.15F
PROVINCETOWN   SUNNY     79  61  53 S9G17     30.13S
NANTUCKET      SUNNY     72  65  78 S9        30.15S
MARTHAS VNYRD  SUNNY     75  61  61 S13       30.14S
$$

MAZALL-311800-
CENTRAL AND WESTERN MASSACHUSETTS

CITY           SKY/WX    TMP DP  RH WIND       PRES   REMARKS
WORCESTER      MOSUNNY   75  56  51 SW12      30.12S
FITCHBURG      PTSUNNY   79  55  43 SW8       30.09F
ORANGE         PTSUNNY   76  58  53 S10       30.09F
SPRINGFIELD    NOT AVBL
WESTFIELD      PTSUNNY   78  56  46 SW13      30.07F
NORTH ADAMS    CLOUDY    71  58  63 VRB7      30.08S
PITTSFIELD     CLOUDY    71  60  68 S8G17     30.08F
$$

RIZALL-311800-
RHODE ISLAND

CITY           SKY/WX    TMP DP  RH WIND       PRES   REMARKS
PROVIDENCE     PTSUNNY   77  60  55 SE15      30.11S
NEWPORT        SUNNY     76  64  66 S13       30.13S
BLOCK ISLAND   SUNNY     75  63  64 S14       30.14S
SMITHFIELD     MOSUNNY   79  57  47 S7        30.11S
WESTERLY       SUNNY     78  60  53 S10       30.12F
$$

CTZALL-311800-
CONNECTICUT

CITY           SKY/WX    TMP DP  RH WIND       PRES   REMARKS
BRADLEY INTL   PTSUNNY   80  57  45 SW13      30.07F
HARTFORD       MOSUNNY   79  55  43 SW10      30.08F
BRIDGEPORT     SUNNY     79  58  48 SW8       30.10S
DANBURY        MOSUNNY   77  57  50 SW15G21   30.11S
GROTON         SUNNY     75  62  64 S8        30.11S
NEW HAVEN      MOSUNNY   80  57  45 SW7       30.11S
CHESTER        FAIR      77  55  47 S10G17    30.12S
MERIDEN        MOSUNNY   80  54  40 SW10G22   30.10S
WILLIMANTIC    MOSUNNY   80  54  40 SW12G18   30.10S
OXFORD         MOSUNNY   75  59  57 SW8       30.13S
$$

MEZ002-015-021-024-NHZ003-005-008-011-012-014-VTZ005-008-311800-
NORTHERN NEW ENGLAND

CITY           SKY/WX    TMP DP  RH WIND       PRES   REMARKS
PORTLAND ME    MOSUNNY   73  61  65 SE9       30.10S
BANGOR ME      MOSUNNY   75  58  55 S13       30.10F
CONCORD NH     PTSUNNY   74  57  55 SW10      30.09R
MANCHESTER NH  PTSUNNY   79  55  43 SW12G17   30.07S
NASHUA NH      PTSUNNY   80  58  46 CALM      30.09S
PORTSMOUTH NH  PTSUNNY   77  63  61 SE12      30.08S
JAFFREY NH     CLOUDY    71  57  61 S12G18    30.12R
KEENE NH       CLOUDY    72  52  49 SW10      30.09S
BURLINGTON VT  TSTM      62  57  83 SW18G36   30.04R
MT. WASHINGTON FOG       45  45 100 S23G29      N/A  VSB 1/16
$$

NYZ052-076-311800-
EASTERN NEW YORK

CITY           SKY/WX    TMP DP  RH WIND       PRES   REMARKS
ALBANY         PTSUNNY   75  60  59 S15       30.04F
NEW YORK CITY  MOSUNNY   80  57  45 SW12G17   30.09S
$$

ANZALL-311800-
MARINE OBSERVATIONS

STATION/POSITION TIME  TEMP    WIND        PRES    VSBY  WAVE
                       AIR SEA DIR/SP/G                  HT/PER
                 (UTC) (F)     (DEG/KT/KT) (MB)    (MI)  (FT/S)
BOSTON BUOY      NOT AVBL
BUZZARDS BAY     NOT AVBL
NANTUCKET SOUND  NOT AVBL
MASS BAY-STELLWA NOT AVBL
ISLE OF SHOALS   NOT AVBL
S OF BLOCK IS    NOT AVBL
$$

......................KEY.........................
  SKY/WX - SKY CONDITION/PRESENT WEATHER
  TMP    - TEMPERATURE IN FAHRENHEIT
  DWPT   - DEWPOINT IN FAHRENHEIT
  RH     - RELATIVE HUMIDITY IN PERCENT
  WIND   - DIRECTION AND SPEED IN MPH
  PRES   - MEAN SEA LEVEL PRESSURE IN INCHES OF HG
  WCI    - WIND CHILL INDEX
  VSB    - VISIBILITY IN MILES
  HX     - HEAT INDEX
  TC     - TEMPERATURE IN CELSIUS
  VRB    - VARIABLE WIND DIRECTION
  N/A    - NOT AVAILABLE



USA.gov is the U.S. government's official web portal to all federal, state and local government web resources and services.